Location: Spring Creek
(38.2870°N, 100.2160°W)
Time: 03:52:42
(UTC+00:00)

DELTA 2 R/B (1) - Pass Details

Date: 08 May 2021
Orbit: 790 x 802 km, 39.6° (Epoch: 22 June)

Event Time Altitude Azimuth Distance (km) Brightness Sun altitude
Rises 03:44:58 0° 281° (WNW) 3,287 7.7 -21.4°
Reaches altitude 10° 03:47:27 10° 282° (WNW) 2,355 6.8 -21.8°
Maximum altitude 03:53:02 87° 194° (SSW) 794 3.4 -22.5°
Enters shadow 03:54:30 51° 107° (ESE) 987 3.7 -22.7°
